This demonstration page uses our WeatherBlox Daily Observations layout. Learn more.

Hourly Observations for October 19, 2017

Temp ( °F °C ) Dew Point ( °F °C ) Humidity (%) Winds ( mph kmh ) Pressure ( in mb ) Visibility ( mi km ) Precip ( " mm )
12:54 am 00:54 Clear 46 7.8 42 5.6 86 86 N 6 9 30.04 1017 10 16.0934 0 0
1:54 am 01:54 Clear 46 7.8 42 5.6 86 86 N 3 6 30.04 1017 10 16.0934 0 0
2:54 am 02:54 Clear 47 8.3 42 5.6 83 83 NNW 5 7 30.04 1017 10 16.0934 0 0
3:54 am 03:54 Clear 45 7.2 41 5 86 86 N 3 6 30.03 1017 10 16.0934 0 0
4:54 am 04:54 Clear 46 7.8 41 5 83 83 N 7 11 30.03 1017 10 16.0934 0 0
5:54 am 05:54 Clear 44 6.7 40 4.4 85 85 N 5 7 30.05 1018 10 16.0934 0 0
6:54 am 06:54 Clear 43 6.1 40 4.4 89 89 N 3 6 30.07 1018 10 16.0934 0 0
7:54 am 07:54 Sunny 44 6.7 40 4.4 85 85 Calm 30.08 1019 10 16.0934 0 0
8:54 am 08:54 Sunny 47 8.3 43 6.1 86 86 Calm 30.09 1019 10 16.0934 0 0
9:54 am 09:54 Sunny 54 12.2 46 7.8 75 75 Calm 30.09 1019 9 14.48406 0 0
10:54 am 10:54 Sunny 62 16.7 50 10 65 65 Calm 30.07 1018 10 16.0934 0 0
11:54 am 11:54 Sunny 68 20 52 11.1 57 57 NW 3 6 30.06 1018 10 16.0934 0 0
12:54 pm 12:54 Sunny 74 23.3 54 12.2 50 50 SSE 5 7 30.04 1017 10 16.0934 0 0
1:54 pm 13:54 Sunny 77 25 53 11.7 43 43 SE 9 15 30.01 1016 10 16.0934 0 0
2:54 pm 14:54 Sunny 79 26.1 52 11.1 39 39 S 10 17 29.98 1015 10 16.0934 0 0
3:54 pm 15:54 Sunny 80 26.7 54 12.2 41 41 SSE 13 20 29.97 1015 10 16.0934 0 0
4:54 pm 16:54 Sunny 79 26.1 55 12.8 44 44 S 13 20 29.95 1014 10 16.0934 0 0
5:54 pm 17:54 Sunny 76 24.4 54 12.2 47 47 S 12 19 29.96 1015 10 16.0934 0 0
6:54 pm 18:54 Clear 67 19.4 52 11.1 59 59 SSE 8 13 29.96 1015 10 16.0934 0 0
7:54 pm 19:54 Clear 64 17.8 50 10 60 60 SSE 8 13 29.97 1015 10 16.0934 0 0
8:54 pm 20:54 Clear 61 16.1 50 10 67 67 S 10 17 29.96 1015 10 16.0934 0 0
9:54 pm 21:54 Clear 57 13.9 49 9.4 74 74 S 10 17 29.96 1015 10 16.0934 0 0
10:54 pm 22:54 Clear 58 14.4 48 8.9 70 70 S 9 15 29.96 1015 10 16.0934 0 0
11:54 pm 23:54 Clear 63 17.2 48 8.9 58 58 S 15 24 29.96 1014 10 16.0934 0 0

Powered by AerisWeather